Find Starlink 37536

NORAD ID: 69506 Int'l Des: 2026-132 Owner: SPXS Country: US Constellation: starlink operational

Aktuelle Ansicht

3D-Globus wird geladen...

About Starlink 37536

Starlink 37536 (NORAD 69506) is a starlink constellation satellite launched Jun 11, 2026 by SPXS of US. with a mass of 575.00 kg.

Über Starlink 37536

Beschreibung wird geladen...

Nächste Überflüge

Passes for default location (London). Set your location on the main map for personalized predictions.

Höhenverlauf

Loading altitude history...

Zweizeiliger Elementsatz

1 69506U 26132E 26163.14915934 .00000290 00000-0 32813-4 0 9996
2 69506 97.6733 226.9333 0000857 356.5117 3.6097 14.93535946 25
Epoch: 12. Juni 2026 • Age: 28 hours

Aktueller Status

Höhe 594.4 km
Geschwindigkeit 7.57 km/s
Subsatellitenpunkt 49.30°N, 149.57°W
Startdatum 11. Juni 2026
Alter 1 day
Typ internet

Technische Details

Klassifizierung Payload
Masse 575.00 kg
Trockenmasse 530.00 kg
Gesamtmasse 575.00 kg
Länge 0.30 m
Durchmesser 4.10 m
Spannweite 29.00 m
Form Box + pan
Hersteller SPXS
Bus-Typ Starlink V2MO
Phasenstatus In Orbit
Besitzer/Staat SPXS/US

Most Searched